Other Public Products
Issued by NWS Grand Forks, ND

Home | Current Version | Previous Version | Text Only | Print | Product List | Glossary Off
Versions: 1 2 3 4 5 6 7 8 9 10 11 12 13 14 15 16 17 18 19 20 21 22 23 24 25 26 27 28 29 30 31 32 33 34 35 36 37 38 39 40 41 42 43 44 45 46 47 48 49 50

000
FPUS83 KFGF 240231
OPUFGF
PRAIRIE TO PINES WEATHER ROUNDUP
NATIONAL WEATHER SERVICE EASTERN NORTH DAKOTA/GRAND FORKS ND
800 PM CST SUN NOV 23 2014

 **SATELLITE DATA USED TO AUGMENT SKY COVER AT AUTOMATED STATIONS**
 *****  WEATHER ACROSS EASTERN NORTH DAKOTA  *****

CITY           SKY/WX    TMP DP  RH WIND       PRES   REMARKS
GRAND FORKS    FLURRIES  19  15  84 NW20G29   29.59R WCI   3
GRAND FORKS AF FRZ RAIN  17  15  91 N15       29.59R WCI   2
GRAND CITY NWS   N/A     18 N/A N/A N15         N/A  WCI   3
BUXTON           N/A     19  19  99 NW18        N/A  WCI   3
DEVILS LAKE    CLOUDY    14   3  62 N20       29.61S WCI  -3
FARGO          CLOUDY    22  17  81 NW23      29.57R WCI   6
WAHPETON ARPT  CLOUDY    28  23  80 NW25      29.53F WCI  14
$$

 *****  WEATHER ACROSS CENTRAL AND WESTERN NORTH DAKOTA  *****

CITY           SKY/WX    TMP DP  RH WIND       PRES   REMARKS
JAMESTOWN      MOCLDY    14   8  77 NW22G33   29.61R WCI  -4
BISMARCK       FLURRIES  21  14  74 N18G28    29.70R WCI   6
MINOT          FLURRIES  16   8  71 NW24G33   29.72R WCI  -2
MINOT AFB      CLOUDY    15  10  78 NW21      29.72R WCI  -2
GARRISON         N/A     18  12  77 NW29G38   29.69S WCI  -1
WILLISTON      CLEAR     16  10  77 N9        29.81R WCI   4
DICKINSON      CLOUDY    22  15  75 NW21G30   29.71R WCI   6
HETTINGER      MOCLDY    22  16  78 NW25G31   29.72S WCI   5
$$

 *****  OTHER OBSERVATIONS NORTHEAST NORTH DAKOTA  *****

CITY           SKY/WX    TMP DP  RH WIND       PRES   REMARKS
WALHALLA       FLURRIES  14  14 100 N22G30    29.63R WCI  -4
LANGDON        FLURRIES  12   7  79 NW18G28   29.59R WCI  -5
CAVALIER       CLOUDY    16  10  79 N26G41    29.62R WCI  -3
GRAFTON        LGT SNOW  16  14  93 N23G31    29.61R WCI  -2
CANDO          FLURRIES  14   9  79 N22G29    29.65S WCI  -4
FORT TOTTEN    NOT AVBL
ROLLA          FLURRIES  10   7  85 N23G31    29.64S WCI -10
RUGBY          CLOUDY    14   9  79 N20       29.67S WCI  -3
 ***** THE ABOVE OBSERVATIONS ARE NON NWS ARE NOT QUALITY
        CONTROLLED AND MAY MIS-REPORT RAIN FOR SNOW...
$$

 *****  OTHER OBSERVATIONS SOUTHEAST NORTH DAKOTA *****

CITY           SKY/WX    TMP DP  RH WIND       PRES   REMARKS
COOPERSTOWN    NOT AVBL
VALLEY CITY    FLURRIES  18  16  93 NW17G26   29.59R WCI   2
OAKES            N/A     19  14  79 NW18G25   29.61S WCI   4
GWINNER        CLOUDY    23  16  74 NW24      29.60R WCI   7
SHEYENNE NWR     N/A     22  17  80 NW18      29.95S WCI   7
BUFFALO        NOT AVBL
WYNDMERE         N/A     25  21  86 MISG        N/A
 ***** THE ABOVE OBSERVATIONS ARE NON NWS ARE NOT QUALITY
       CONTROLLED AND MAY MIS-REPORT RAIN FOR SNOW...
$$

  *****  WEATHER ACROSS NORTHERN MINNESOTA  *****

CITY           SKY/WX    TMP DP  RH WIND       PRES   REMARKS
FLAG ISLAND    CLOUDY    30  30 100 NW16      29.42R FOG     WCI  19
WARROAD        CLOUDY    27  21  80 NW15G21   29.46R WCI  15
ROSEAU         CLOUDY    25  19  80 W10G20    29.48R WCI  15
HALLOCK        CLOUDY    18  16  93 NW22G30   29.57R FOG     WCI   0
THF RVR FALLS  CLOUDY    18  18 100 NW20G26   29.52R WCI   1
HALSTAD          N/A     21  18  88 NW16        N/A  WCI   7
FOSSTON        CLOUDY    19  18  93 NW14G21   29.51R FOG     WCI   6
BAUDETTE       CLOUDY    30  29  96 VRB7      29.41S FOG     WCI  23
WASKISH        CLOUDY    30  28  93 W10       29.42R WCI  21
CROOKSTON      CLOUDY    19  18  93 NW21      29.57S FOG     WCI   3
$$
  *****  WEATHER ACROSS CENTRAL AND WEST MINNESOTA  *****

CITY           SKY/WX    TMP DP  RH WIND       PRES   REMARKS
BEMIDJI        CLOUDY    28  27  96 W17       29.43R FOG     WCI  15
PARK RAPIDS    CLOUDY    30  28  92 NW13      29.42S WCI  20
WADENA         CLOUDY    28  25  86 W14       29.44F WCI  17
DETROIT LAKES  CLOUDY    27  27 100 NW20G25   29.49S FOG     WCI  13
MOORHEAD       CLOUDY    25  25 100 NW22      29.56R FOG     WCI  10
FERGUS FALLS   CLOUDY    27  21  80 NW16      29.52F WCI  14
ELBOW LAKE       N/A     27  24  89 NW15      29.49F WCI  15
MORRIS MN        N/A     28  25  86 NW23      29.50S WCI  14
STAPLES        CLOUDY    30  25  80 NW14      29.42F WCI  20
WHEATON        CLOUDY    25  19  80 W24G32    29.56S WCI   9
$$
  *****  WEATHER ELSEWHERE ACROSS MINNESOTA  *****

CITY           SKY/WX    TMP DP  RH WIND       PRES   REMARKS
DULUTH         LGT RAIN  36  34  92 NW7       29.34S FOG
INTRNTL FALLS  CLOUDY    34  32  92 N5        29.38F FOG
ELY            CLOUDY    34  34 100 CALM      29.35S FOG
CLOQUET        LGT RAIN  36  34  93 NW6       29.35S
BRAINERD       CLOUDY    35  30  82 NW14      29.40S
HIBBING        LGT RAIN  35  32  88 NW6       29.35F FOG
ALEXANDRIA     CLOUDY    29  22  75 NW21      29.47S WCI  16
SAINT CLOUD    CLOUDY    36  28  73 NW18      29.40R
MINNEAPOLIS    LGT RAIN  38  35  89 NW15      29.37F
$$

  *****  WEATHER ACROSS SOUTH DAKOTA  *****

CITY           SKY/WX    TMP DP  RH WIND       PRES   REMARKS
SIOUX FALLS    CLOUDY    29  21  72 NW23G31   29.56R WCI  15
BROOKINGS      NOT AVBL
WATERTOWN      CLOUDY    25  17  72 NW30G38   29.54S WCI   8
HURON          CLOUDY    27  19  72 N16       29.63S WCI  15
SISSETON         N/A     24  20  84 NW28G37   29.55R WCI   7
ABERDEEN       CLOUDY    24  14  65 NW23G31   29.64R WCI   9
MITCHELL       NOT AVBL
PIERRE         CLOUDY    29  21  72 NW16      29.68R WCI  17
MOBRIDGE       CLOUDY    26  17  68 NW20G32   29.64F WCI  12
RAPID CITY     PTCLDY    32  22  66 N14       29.72S WCI  22
$$

  *****  SOME WEATHER IN NEARBY STATES *****

CITY           SKY/WX    TMP DP  RH WIND       PRES   REMARKS
GLASGOW MT     CLEAR     18  13  80 E3        29.83S
GREAT FALLS MT CLOUDY    38  22  52 SW15      29.79F
CHEYENNE WY    PTCLDY    24  14  65 NW10      29.85S WCI  14
SCOTTSBLUFF NE CLOUDY    32  22  66 W13       29.84S WCI  22
OMAHA NE       CLOUDY    42  30  62 NW15      29.54S
DES MOINES IA  LGT RAIN  41  37  86 N22G31    29.39R FOG
DAVENPORT IA   FOG       49  47  93 SE5       29.22F VSB 1/4
CHICAGO IL     LGT RAIN  50  48  93 E6        29.26F FOG
EAU CLAIRE WI  LGT RAIN  46  45  96 NW7       29.26F FOG
LA CROSSE WI   FOG       47  45  93 CALM      29.26F VSB 1/2
$$

  *****  SOME NATIONAL WEATHER *****

CITY           SKY/WX    TMP DP  RH WIND       PRES   REMARKS
LA GUARDIA NY  CLOUDY    51  44  77 S3        30.09F
RALEIGH NC     CLOUDY    61  58  90 SE13G18   29.86F
ATLANTA GA     MOCLDY    61  57  87 S14G21    29.72R
NEW ORLEANS LA PTCLDY    67  63  87 S12       29.70R
OKLAHOMA CITY  CLOUDY    45  37  76 N24G30    29.67R
ALBUQUERQUE NM PTCLDY    40   9  28 N6        30.01R
SALT LAKE CITY CLOUDY    37  24  59 SW3       30.23S
LOS ANGELES CA MOCLDY    71   8   8 N7        30.09R
BOISE ID       CLOUDY    39  29  67 SE3       30.22S
SEATTLE WA     PTCLDY    47  39  74 S6        30.23R
$$

*** WEATHER ACROSS MANITOBA...SASKATCHEWAN AND ONTARIO ***
                ***ONTARIO***

CITY           SKY/WX    TMP DP  RH WIND       PRES   REMARKS
GERALDTON      FRZ DRZL  23  21  93 NE7       29.43F FOG     WCI  15
THUNDER BAY    FOG       37  37 100 W3        29.35F VSB 1/4
SIOUX LOOKOUT  FRZ DRZL  28  28 100 NE6       29.42R FOG     WCI  22
TORONTO        CLOUDY    46  41  81 E9        29.69F
BIG TROUT LK   LGT SNOW   0  -4  85 N7        29.82R VSB 1   WCI -13
PICKLE LAKE    FRZ DRZL  16  12  86 NE8       29.51S WCI   5
DRYDEN         LGT SNOW  32  32 100 NE9       29.39  WCI  24
KENORA         SNOW      32  32 100 N3        29.41R VSB 1/4
$$
                *** MANITOBA***

CITY           SKY/WX    TMP DP  RH WIND       PRES   REMARKS
BRANDON        FLURRIES   9   5  85 N12G23    29.74R WCI  -6
DAUPHIN        FLURRIES   7   1  78 N12G18    29.85S WCI  -9
ISLAND LAKE    MOCLDY    -4 -11  71 N8        29.85R WCI -19
PILOT MOUND      N/A     10   5  79 NW21G30     N/A  WCI  -9
THE PAS        CLEAR      1  -6  71 N3        29.95S
THOMPSON       PTCLDY   -15 -20  76 N5        29.97S WCI -27
WINNIPEG       CLOUDY    14   9  79 N25       29.61R WCI  -5
LYNN LAKE      CLOUDY    -9 -13  84 SE3       29.89F
CHURCHILL      CRYSTALS -17 -22  76 SW8       29.98F WCI -34
GILLAM         PTCLDY   -15 -20  76 NW6       29.98R WCI -29
$$
                ***SASKATCHEWAN***

CITY           SKY/WX    TMP DP  RH WIND       PRES   REMARKS
ESTEVAN        PTCLDY    10   5  79 NW12      29.79S WCI  -4
KINDERSLEY     MOCLDY    10   7  85 E8        29.76F WCI  -1
LLOYDMINSTER   PTCLDY     9   5  85 S8        29.74F WCI  -4
PRINCE ALBERT  PTCLDY    -2  -6  84 CALM      29.88R
REGINA         FLURRIES   9   7  92 N8        29.82F WCI  -4


USA.gov is the U.S. government's official web portal to all federal, state and local government web resources and services.